Time,TemperatureF,DewpointF,PressureIn,WindDirection,WindDirectionDegrees,WindSpeedMPH,WindSpeedGustMPH,Humidity,HourlyPrecipIn,Conditions,Clouds,dailyrainin,SoftwareType,DateUTC
2013-09-07 00:14:00,54.0,46.0,30.07,SSW,210,3.0,5.0,74,0.00,,,0.00,,2013-09-07 04:14:00,
2013-09-07 00:24:00,54.0,46.0,30.07,South,170,2.0,5.0,75,0.00,,,0.00,,2013-09-07 04:24:00,
2013-09-07 00:43:00,54.0,47.0,30.07,South,173,2.0,4.0,76,0.00,,,0.00,,2013-09-07 04:43:00,
2013-09-07 00:54:00,54.0,47.0,30.07,SSW,198,2.0,5.0,76,0.00,,,0.00,,2013-09-07 04:54:00,
2013-09-07 01:13:00,54.0,47.0,30.07,SW,236,2.0,4.0,76,0.00,,,0.00,,2013-09-07 05:13:00,
2013-09-07 01:23:00,54.0,46.0,30.06,SSE,164,2.0,6.0,75,0.00,,,0.00,,2013-09-07 05:23:00,
2013-09-07 01:52:00,53.0,46.0,30.06,SSE,165,2.0,5.0,78,0.00,,,0.00,,2013-09-07 05:52:00,
2013-09-07 02:13:00,53.0,47.0,30.06,SSW,195,2.0,4.0,80,0.00,,,0.00,,2013-09-07 06:13:00,
2013-09-07 02:22:00,53.0,47.0,30.05,South,172,3.0,8.0,79,0.00,,,0.00,,2013-09-07 06:22:00,
2013-09-07 02:42:00,53.0,47.0,30.05,SSW,200,2.0,4.0,79,0.00,,,0.00,,2013-09-07 06:42:00,
2013-09-07 02:52:00,52.0,46.0,30.05,SE,142,2.0,4.0,80,0.00,,,0.00,,2013-09-07 06:52:00,
2013-09-07 03:12:00,52.0,46.0,30.04,South,177,2.0,4.0,81,0.00,,,0.00,,2013-09-07 07:12:00,
2013-09-07 03:22:00,52.0,47.0,30.04,South,176,2.0,4.0,82,0.00,,,0.00,,2013-09-07 07:22:00,
2013-09-07 03:42:00,52.0,46.0,30.04,South,175,2.0,4.0,81,0.00,,,0.00,,2013-09-07 07:42:00,
2013-09-07 03:52:00,52.0,46.0,30.04,SSW,207,1.0,3.0,81,0.00,,,0.00,,2013-09-07 07:52:00,
2013-09-07 04:12:00,52.0,46.0,30.04,South,174,1.0,4.0,81,0.00,,,0.00,,2013-09-07 08:12:00,
2013-09-07 04:22:00,52.0,46.0,30.04,SSW,195,2.0,4.0,81,0.00,,,0.00,,2013-09-07 08:22:00,
2013-09-07 04:53:00,51.0,46.0,30.04,South,185,1.0,5.0,82,0.00,,,0.00,,2013-09-07 08:53:00,
2013-09-07 05:12:00,51.0,46.0,30.04,SSE,153,2.0,3.0,83,0.00,,,0.00,,2013-09-07 09:12:00,
2013-09-07 05:21:00,51.0,46.0,30.03,SSE,166,2.0,3.0,84,0.00,,,0.00,,2013-09-07 09:21:00,
2013-09-07 05:42:00,50.0,45.0,30.04,SSE,159,2.0,4.0,84,0.00,,,0.00,,2013-09-07 09:42:00,
2013-09-07 05:52:00,50.0,45.0,30.02,SSE,162,2.0,4.0,84,0.00,,,0.00,,2013-09-07 09:52:00,
2013-09-07 06:11:00,50.0,46.0,30.03,South,188,2.0,3.0,85,0.00,,,0.00,,2013-09-07 10:11:00,
2013-09-07 06:21:00,50.0,46.0,30.03,SSW,208,2.0,3.0,85,0.00,,,0.00,,2013-09-07 10:21:00,
2013-09-07 06:41:00,50.0,46.0,30.03,South,172,1.0,2.0,85,0.00,,,0.00,,2013-09-07 10:41:00,
2013-09-07 06:51:00,51.0,46.0,30.03,SW,217,1.0,6.0,84,0.00,,,0.00,,2013-09-07 10:51:00,
2013-09-07 07:13:00,51.0,46.0,30.04,WSW,240,1.0,5.0,83,0.00,,,0.00,,2013-09-07 11:13:00,
2013-09-07 07:23:00,52.0,47.0,30.04,SW,228,1.0,3.0,82,0.00,,,0.00,,2013-09-07 11:23:00,
2013-09-07 07:53:00,52.0,47.0,30.04,SE,128,1.0,3.0,82,0.00,,,0.00,,2013-09-07 11:53:00,
2013-09-07 08:12:00,53.0,48.0,30.03,WSW,238,1.0,4.0,82,0.00,,,0.00,,2013-09-07 12:12:00,
2013-09-07 08:22:00,53.0,47.0,30.03,WNW,302,1.0,5.0,81,0.00,,,0.00,,2013-09-07 12:22:00,
2013-09-07 08:52:00,56.0,49.0,30.02,North,350,0.0,3.0,78,0.00,,,0.00,,2013-09-07 12:52:00,
2013-09-07 09:12:00,57.0,50.0,30.01,West,265,1.0,4.0,76,0.00,,,0.00,,2013-09-07 13:12:00,
2013-09-07 09:21:00,59.0,51.0,30.01,South,172,2.0,4.0,74,0.00,,,0.00,,2013-09-07 13:21:00,
2013-09-07 09:52:00,62.0,52.0,30.00,WSW,243,1.0,3.0,70,0.00,,,0.00,,2013-09-07 13:52:00,
2013-09-07 10:11:00,63.0,52.0,30.00,SW,219,1.0,3.0,67,0.00,,,0.00,,2013-09-07 14:11:00,
2013-09-07 10:22:00,64.0,52.0,30.01,WSW,241,3.0,6.0,64,0.00,,,0.00,,2013-09-07 14:22:00,
2013-09-07 10:52:00,66.0,52.0,30.00,SW,233,2.0,5.0,61,0.00,,,0.00,,2013-09-07 14:52:00,
2013-09-07 11:11:00,68.0,52.0,30.00,SSE,166,2.0,4.0,57,0.00,,,0.00,,2013-09-07 15:11:00,
2013-09-07 11:23:00,69.0,52.0,29.99,WSW,248,2.0,5.0,55,0.00,,,0.00,,2013-09-07 15:23:00,
2013-09-07 11:54:00,70.0,52.0,29.97,West,264,4.0,7.0,52,0.00,,,0.00,,2013-09-07 15:54:00,
2013-09-07 12:24:00,72.0,48.0,29.96,WSW,248,6.0,9.0,43,0.00,,,0.00,,2013-09-07 16:24:00,
2013-09-07 12:53:00,74.0,51.0,29.96,NNW,335,2.0,7.0,45,0.00,,,0.00,,2013-09-07 16:53:00,
2013-09-07 13:12:00,74.0,51.0,29.95,WSW,243,2.0,5.0,44,0.00,,,0.00,,2013-09-07 17:12:00,
2013-09-07 13:24:00,75.0,50.0,29.94,SE,134,3.0,9.0,42,0.00,,,0.00,,2013-09-07 17:24:00,
2013-09-07 13:43:00,75.0,50.0,29.93,WNW,299,3.0,10.0,42,0.00,,,0.00,,2013-09-07 17:43:00,
2013-09-07 13:52:00,77.0,53.0,29.93,SW,217,3.0,7.0,43,0.00,,,0.00,,2013-09-07 17:52:00,
2013-09-07 14:13:00,77.0,51.0,29.93,WSW,252,3.0,6.0,40,0.00,,,0.00,,2013-09-07 18:13:00,
2013-09-07 14:22:00,77.0,53.0,29.92,SW,231,2.0,7.0,43,0.00,,,0.00,,2013-09-07 18:22:00,
2013-09-07 14:43:00,77.0,51.0,29.91,WSW,238,3.0,7.0,41,0.00,,,0.00,,2013-09-07 18:43:00,
2013-09-07 14:52:00,78.0,53.0,29.90,SE,143,2.0,10.0,42,0.00,,,0.00,,2013-09-07 18:52:00,
2013-09-07 15:11:00,79.0,53.0,29.90,WSW,245,2.0,5.0,41,0.00,,,0.00,,2013-09-07 19:11:00,
2013-09-07 15:22:00,79.0,53.0,29.88,WSW,255,4.0,8.0,40,0.00,,,0.00,,2013-09-07 19:22:00,
2013-09-07 15:52:00,79.0,53.0,29.88,WSW,238,3.0,9.0,41,0.00,,,0.00,,2013-09-07 19:52:00,
2013-09-07 16:12:00,79.0,54.0,29.88,SW,232,3.0,8.0,42,0.00,,,0.00,,2013-09-07 20:12:00,
2013-09-07 16:22:00,79.0,55.0,29.88,SW,230,2.0,4.0,44,0.00,,,0.00,,2013-09-07 20:22:00,
2013-09-07 16:53:00,78.0,56.0,29.86,WSW,247,1.0,4.0,46,0.00,,,0.00,,2013-09-07 20:53:00,
2013-09-07 17:12:00,77.0,56.0,29.86,SSE,167,1.0,5.0,48,0.00,,,0.00,,2013-09-07 21:12:00,
2013-09-07 17:22:00,76.0,55.0,29.86,WSW,255,3.0,5.0,49,0.00,,,0.00,,2013-09-07 21:22:00,
2013-09-07 17:54:00,76.0,56.0,29.86,SW,226,2.0,6.0,50,0.00,,,0.00,,2013-09-07 21:54:00,
2013-09-07 18:13:00,76.0,55.0,29.86,WSW,248,3.0,7.0,49,0.00,,,0.00,,2013-09-07 22:13:00,
2013-09-07 18:24:00,75.0,55.0,29.86,SSW,193,2.0,8.0,50,0.00,,,0.00,,2013-09-07 22:24:00,
2013-09-07 18:53:00,74.0,56.0,29.86,SW,235,2.0,5.0,53,0.00,,,0.00,,2013-09-07 22:53:00,
2013-09-07 19:12:00,73.0,56.0,29.86,South,176,1.0,4.0,55,0.00,,,0.00,,2013-09-07 23:12:00,
2013-09-07 19:23:00,72.0,55.0,29.86,SSW,205,2.0,3.0,56,0.00,,,0.00,,2013-09-07 23:23:00,
2013-09-07 19:52:00,72.0,56.0,29.86,SW,221,2.0,5.0,58,0.00,,,0.00,,2013-09-07 23:52:00,
2013-09-07 20:11:00,71.0,56.0,29.86,SSW,207,1.0,3.0,59,0.00,,,0.00,,2013-09-08 00:11:00,
2013-09-07 20:22:00,71.0,56.0,29.86,South,181,1.0,3.0,60,0.00,,,0.00,,2013-09-08 00:22:00,
2013-09-07 20:42:00,70.0,55.0,29.86,WSW,239,1.0,4.0,60,0.00,,,0.00,,2013-09-08 00:42:00,
2013-09-07 20:52:00,70.0,56.0,29.86,SE,138,2.0,5.0,61,0.00,,,0.00,,2013-09-08 00:52:00,
2013-09-07 21:11:00,70.0,56.0,29.86,South,184,1.0,3.0,62,0.00,,,0.00,,2013-09-08 01:11:00,
2013-09-07 21:22:00,70.0,57.0,29.86,South,176,1.0,4.0,63,0.00,,,0.00,,2013-09-08 01:22:00,
2013-09-07 21:42:00,69.0,56.0,29.85,South,172,1.0,2.0,64,0.00,,,0.00,,2013-09-08 01:42:00,
2013-09-07 21:52:00,69.0,57.0,29.85,South,173,0.0,2.0,66,0.00,,,0.00,,2013-09-08 01:52:00,
2013-09-07 22:12:00,68.0,56.0,29.86,South,186,1.0,2.0,66,0.00,,,0.00,,2013-09-08 02:12:00,
2013-09-07 22:23:00,68.0,57.0,29.86,SW,222,1.0,2.0,68,0.00,,,0.00,,2013-09-08 02:23:00,
2013-09-07 22:43:00,68.0,57.0,29.85,SSW,212,1.0,2.0,68,0.00,,,0.00,,2013-09-08 02:43:00,
2013-09-07 22:52:00,68.0,57.0,29.85,South,186,1.0,2.0,69,0.00,,,0.00,,2013-09-08 02:52:00,
2013-09-07 23:23:00,67.0,57.0,29.85,SE,142,1.0,5.0,70,0.00,,,0.00,,2013-09-08 03:23:00,
2013-09-07 23:44:00,67.0,57.0,29.84,South,176,1.0,3.0,71,0.00,,,0.00,,2013-09-08 03:44:00,
2013-09-07 23:54:00,67.0,58.0,29.83,South,177,2.0,4.0,72,0.00,,,0.00,,2013-09-08 03:54:00,